Tracking 18852 objects as of 24-Nov-2017
HD Live streaming from Space Station
objects crossing your sky now

FENGYUN 1C DEB

Track FENGYUN 1C DEB now!
10-day predictions


NORAD ID: 30385
Int'l Code: 1999-025ACY
Perigee: 690.7 km
Apogee: 882.2 km
Inclination: 99.1 °
Period: 100.4 minutes
Semi major axis: 7157 km
RCS: 0.023 m2 (small)
Launch date: May 10, 1999
Source: People's Republic of China (PRC)
Launch site: Taiyaun Space Center, China (TSC)

Note: This is SATELLITE DEBRIS
aabbcc
Your satellite tracking list
Your tracking list is empty




NASA's NSSDC Master Catalog

Two Line Element Set (TLE):
1 30385U 99025ACY 17328.25606150 +.00000126 +00000-0 +58203-4 0  9991
2 30385 099.0787 174.3725 0133752 252.7732 160.4278 14.33720381565960
Source of the keplerian elements: AFSPC